User: anonymous   Login
Location: Mason Neck State Park
(38.6428°N, 77.1981°W)
Time: 22:24:39
(UTC-04:00)
Language:

Cosmos 1400 Rocket - Orbit

View from above orbital plane
View from above orbital plane
View from above satellite
View from above satellite

Ground track
Ground track

The orbit data is extracted from the following two-line orbital elements,

1 13403U 82079B   17085.89872539 +.00000571 +00000-0 +36607-4 0  9998
2 13403 081.1716 003.5896 0033398 186.8692 173.2079 15.06517740884111
Epoch (UTC): 26 March 2017 21:34:09
Eccentricity: 0.0033398
inclination: 81.1716°
perigee height: 524 km
apogee height: 570 km
right ascension of ascending node: 3.5896°
argument of perigee: 186.8692°
revolutions per day: 15.06517740
mean anomaly at epoch: 173.2079°
orbit number at epoch: 88411

The dashed part of the orbit path shows where the satellite is in the earth's shadow,  

DLR